Freeport, IL

7:58 PM CDT on April 25, 2018 (GMT -0500)
Albertus

Weather History for KFEP - January, 2012

Change the Weather History Date:

Saturday, January 28, 2012

  Actual Average Record
Temperature  
Mean Temperature 26 °F -  
Max Temperature 32 °F 26 °F 44 °F (1990)
Min Temperature 20 °F 7 °F -26 °F (1977)
Degree Days  
Heating Degree Days 39    
Moisture  
Dew Point 18 °F    
Average Humidity 71    
Maximum Humidity 92    
Minimum Humidity 50    
Precipitation  
Precipitation 0.00 in - - ()
Sea Level Pressure  
Sea Level Pressure 29.99 in    
Wind  
Wind Speed 15 mph (WSW)    
Max Wind Speed 21 mph    
Max Gust Speed 29 mph    
Visibility 10 miles    
Events Snow    
Averages and records for this station are not official NWS values.
T = Trace of Precipitation, MM = Missing Value Source: NWS Daily Summary

Daily Weather History Graph

Daily Weather History Graph

Search for Another Location

Airport or City:

Astronomy

Jan. 28, 2012 Rise Set
Actual Time 7:15 AM CST 5:06 PM CST
Civil Twilight 6:45 AM CST 5:36 PM CST
Nautical Twilight 6:12 AM CST 6:10 PM CST
Astronomical Twilight 5:39 AM CST 6:43 PM CST
Moon 9:30 AM CST (1/28) 11:03 PM CST (1/28)
Length of Visible Light 10h 51m
Length of Day
9h 50m
Waxing Crescent, 28% of the Moon is Illuminated
Jan 28
Waxing Crescent
Jan 30
First Quarter
Feb 7
Full
Feb 14
Last Quarter
Feb 21
New

Hourly Weather History & Observations

Time (CST) Temp. Windchill Dew Point Humidity Pressure Visibility Wind Dir Wind Speed Gust Speed Precip Events Conditions
12:15 AM 32.0 °F 22.1 °F 29.8 °F 92% 29.85 in 1.8 mi SSW 13.8 mph 17.3 mph N/A Snow Light Snow
12:35 AM 32.0 °F 22.1 °F 29.8 °F 92% 29.85 in 7.0 mi WSW 13.8 mph 17.3 mph N/A   Overcast
12:55 AM 32.0 °F 21.6 °F 29.3 °F 90% 29.84 in 10.0 mi WSW 15.0 mph - N/A   Overcast
1:15 AM 32.0 °F 23.0 °F 28.6 °F 87% 29.83 in 10.0 mi WSW 11.5 mph - N/A   Overcast
1:35 AM 32.0 °F 23.0 °F 28.6 °F 87% 29.84 in 10.0 mi WSW 11.5 mph 17.3 mph N/A   Overcast
1:55 AM 32.0 °F 21.2 °F 28.0 °F 85% 29.85 in 10.0 mi WSW 16.1 mph 20.7 mph N/A   Overcast
2:15 AM 32.0 °F 21.2 °F 27.5 °F 83% 29.85 in 10.0 mi West 16.1 mph 23.0 mph N/A   Overcast
2:35 AM 32.0 °F 20.5 °F 27.0 °F 82% 29.85 in 10.0 mi West 18.4 mph 24.2 mph N/A   Overcast
2:55 AM 32.0 °F 21.6 °F 26.6 °F 80% 29.86 in 10.0 mi West 15.0 mph 23.0 mph N/A   Overcast
3:15 AM 32.0 °F 20.5 °F 26.1 °F 79% 29.86 in 10.0 mi West 18.4 mph 24.2 mph N/A   Overcast
3:35 AM 29.3 °F 16.2 °F 23.4 °F 78% 29.87 in 10.0 mi West 20.7 mph 28.8 mph N/A   Mostly Cloudy
3:55 AM 27.0 °F 14.3 °F 21.9 °F 81% 29.89 in 10.0 mi West 17.3 mph 26.5 mph N/A   Scattered Clouds
4:15 AM 25.0 °F 11.3 °F 19.4 °F 79% 29.89 in 10.0 mi West 18.4 mph 27.6 mph N/A   Clear
4:35 AM 24.4 °F 10.6 °F 18.1 °F 77% 29.90 in 10.0 mi West 18.4 mph 26.5 mph N/A   Clear
4:55 AM 23.0 °F 9.6 °F 15.8 °F 74% 29.91 in 10.0 mi West 16.1 mph 23.0 mph N/A   Clear
5:15 AM 22.8 °F 8.9 °F 15.3 °F 73% 29.92 in 10.0 mi West 17.3 mph 21.9 mph N/A   Clear
5:35 AM 22.3 °F 8.2 °F 15.1 °F 74% 29.92 in 10.0 mi West 17.3 mph 20.7 mph N/A   Clear
5:55 AM 21.9 °F 7.8 °F 14.9 °F 74% 29.94 in 10.0 mi West 17.3 mph - N/A   Clear
6:15 AM 21.9 °F 9.8 °F 15.4 °F 76% 29.96 in 10.0 mi WSW 12.7 mph - N/A   Clear
6:35 AM 21.9 °F 9.8 °F 15.4 °F 76% 29.97 in 10.0 mi WSW 12.7 mph - N/A   Clear
6:55 AM 21.9 °F 10.4 °F 14.9 °F 74% 29.98 in 10.0 mi WSW 11.5 mph - N/A   Clear
7:15 AM 21.9 °F 9.8 °F 14.9 °F 74% 29.99 in 10.0 mi WSW 12.7 mph - N/A   Clear
7:35 AM 21.9 °F 11.0 °F 14.5 °F 73% 29.99 in 10.0 mi WSW 10.4 mph - N/A   Clear
7:55 AM 21.7 °F 11.5 °F 14.4 °F 73% 30.00 in 10.0 mi SW 9.2 mph - N/A   Clear
8:15 AM 20.1 °F 7.5 °F 13.5 °F 75% 30.00 in 10.0 mi SW 12.7 mph - N/A   Clear
8:35 AM 20.8 °F 8.4 °F 14.2 °F 75% 30.01 in 10.0 mi SW 12.7 mph 16.1 mph N/A   Clear
8:55 AM 21.9 °F 10.4 °F 14.9 °F 74% 30.02 in 10.0 mi WSW 11.5 mph 18.4 mph N/A   Clear
9:15 AM 21.9 °F 9.2 °F 14.0 °F 72% 30.02 in 10.0 mi WSW 13.8 mph 18.4 mph N/A   Clear
9:55 AM 23.0 °F 10.1 °F 14.2 °F 69% 30.04 in 10.0 mi WSW 15.0 mph - N/A   Clear
10:15 AM 24.1 °F 11.5 °F 14.5 °F 67% 30.06 in 10.0 mi WSW 15.0 mph 20.7 mph N/A   Clear
10:35 AM 24.4 °F 11.0 °F 14.5 °F 66% 30.06 in 10.0 mi WSW 17.3 mph - N/A   Clear
10:55 AM 24.8 °F 11.5 °F 14.5 °F 65% 30.06 in 10.0 mi WSW 17.3 mph 20.7 mph N/A   Clear
11:15 AM 25.3 °F 12.6 °F 14.9 °F 65% 30.07 in 10.0 mi WSW 16.1 mph 19.6 mph N/A   Clear
11:35 AM 26.1 °F 13.1 °F 15.6 °F 65% 30.07 in 10.0 mi WSW 17.3 mph 21.9 mph N/A   Clear
11:55 AM 26.6 °F 14.7 °F 15.8 °F 64% 30.06 in 10.0 mi WSW 15.0 mph 20.7 mph N/A   Clear
12:15 PM 27.0 °F 14.7 °F 16.2 °F 64% 30.06 in 10.0 mi SW 16.1 mph 25.3 mph N/A   Clear
12:35 PM 27.0 °F 13.9 °F 15.8 °F 63% 30.06 in 10.0 mi WSW 18.4 mph 26.5 mph N/A   Clear
12:55 PM 27.0 °F 13.5 °F 15.3 °F 61% 30.06 in 10.0 mi WSW 19.6 mph 26.5 mph N/A   Clear
1:15 PM 28.0 °F 15.3 °F 16.3 °F 62% 30.06 in 10.0 mi WSW 18.4 mph 23.0 mph N/A   Clear
1:35 PM 28.9 °F 16.5 °F 16.5 °F 60% 30.06 in 10.0 mi WSW 18.4 mph 24.2 mph N/A   Clear
1:55 PM 28.9 °F 16.1 °F 16.7 °F 60% 30.06 in 10.0 mi WSW 19.6 mph 26.5 mph N/A   Clear
2:15 PM 29.3 °F 17.0 °F 17.4 °F 61% 30.06 in 10.0 mi WSW 18.4 mph 23.0 mph N/A   Clear
2:35 PM 29.3 °F 16.6 °F 16.9 °F 60% 30.06 in 10.0 mi WSW 19.6 mph 24.2 mph N/A   Clear
2:55 PM 29.3 °F 16.6 °F 15.6 °F 57% 30.07 in 10.0 mi WSW 19.6 mph 26.5 mph N/A   Clear
3:15 PM 29.3 °F 17.3 °F 15.1 °F 55% 30.08 in 10.0 mi WSW 17.3 mph 20.7 mph N/A   Clear
3:35 PM 29.3 °F 18.2 °F 14.0 °F 53% 30.08 in 10.0 mi WSW 15.0 mph - N/A   Clear
3:55 PM 29.3 °F 19.6 °F 13.3 °F 51% 30.08 in 10.0 mi WSW 11.5 mph 18.4 mph N/A   Clear
4:15 PM 29.3 °F 19.1 °F 12.6 °F 50% 30.09 in 10.0 mi WSW 12.7 mph - N/A   Clear
4:35 PM 29.3 °F 20.2 °F 14.2 °F 53% 30.09 in 10.0 mi SW 10.4 mph - N/A   Clear
4:55 PM 28.8 °F 20.2 °F 15.3 °F 57% 30.09 in 10.0 mi SW 9.2 mph - N/A   Clear
5:15 PM 27.0 °F 17.3 °F 16.7 °F 65% 30.09 in 10.0 mi SW 10.4 mph - N/A   Clear
5:35 PM 27.0 °F 18.0 °F 17.4 °F 67% 30.09 in 10.0 mi SSW 9.2 mph - N/A   Clear
5:55 PM 25.9 °F 17.4 °F 16.9 °F 69% 30.09 in 10.0 mi SSW 8.1 mph - N/A   Scattered Clouds
6:15 PM 25.3 °F 16.0 °F 16.9 °F 70% 30.09 in 10.0 mi SSW 9.2 mph - N/A   Mostly Cloudy
6:35 PM 25.0 °F 14.8 °F 17.6 °F 74% 30.09 in 10.0 mi SSW 10.4 mph - N/A   Overcast
6:55 PM 27.0 °F 18.0 °F 18.5 °F 70% 30.08 in 10.0 mi SSW 9.2 mph - N/A   Overcast
7:15 PM 27.7 °F 17.1 °F 19.2 °F 71% 30.08 in 10.0 mi SSW 12.7 mph - N/A   Overcast
7:35 PM 28.4 °F 19.1 °F 20.7 °F 73% 30.08 in 10.0 mi South 10.4 mph - N/A   Overcast
7:55 PM 29.3 °F 21.5 °F 22.6 °F 76% 30.08 in 10.0 mi SSW 8.1 mph - N/A Snow Light Snow
8:15 PM 29.3 °F 23.2 °F 22.8 °F 77% 30.07 in 10.0 mi SSW 5.8 mph - N/A   Overcast
8:35 PM 29.3 °F 25.6 °F 23.0 °F 77% 30.07 in 5.0 mi WSW 3.5 mph - N/A Snow Light Snow
8:55 PM 27.0 °F - 22.6 °F 84% 30.06 in 7.0 mi Calm Calm - N/A Snow Light Snow
9:15 PM 26.1 °F - 21.6 °F 83% 30.05 in 10.0 mi Calm Calm - N/A   Scattered Clouds
9:35 PM 24.4 °F 17.5 °F 20.1 °F 84% 30.04 in 10.0 mi South 5.8 mph - N/A   Clear
9:55 PM 24.6 °F 15.8 °F 20.3 °F 84% 30.03 in 10.0 mi SSW 8.1 mph - N/A   Clear
10:15 PM 26.2 °F 17.8 °F 21.0 °F 81% 30.03 in 10.0 mi SSW 8.1 mph - N/A   Clear
10:35 PM 25.7 °F 17.1 °F 20.3 °F 80% 30.02 in 10.0 mi SSW 8.1 mph - N/A   Clear
10:55 PM 25.7 °F 16.4 °F 20.3 °F 80% 30.03 in 10.0 mi SW 9.2 mph - N/A   Clear
11:15 PM 25.3 °F 17.6 °F 19.9 °F 80% 30.03 in 10.0 mi SW 6.9 mph - N/A   Clear
11:35 PM 24.8 °F 16.9 °F 19.4 °F 80% 30.03 in 10.0 mi SW 6.9 mph - N/A   Clear
11:55 PM 24.6 °F 17.7 °F 18.9 °F 79% 30.03 in 10.0 mi SW 5.8 mph - N/A   Clear